ONEWEB-0297, 49086

Orbit data source: Space-Track

ONEWEB-0297, 49086 is a payload satellite owned by One Web (NAA) (UK) in LEO that was launched on Sat, 21 Aug 2021 UTC via a SOYUZ-2-1B launch vehicle from the Tyuratam Missile And Space Complex (TTMTR). Payload-class satellites include a variety of spacecraft equipped with specific instruments for various scientific and technological missions. These include communications satellites like Starlink; space stations such as the ISS; scientific satellites like the Hubble; Earth observation satellites from companies like Planet Labs, Umbra, and HawkEye 360; GPS; miniature CubeSats for education and research; and military/defense satellites.

Loading next visibility...
Identifier
49086, 2021-075M
Orbit
LEO
Country
Flag of UKUK
Related business
Manufacturer
One Web
Mission
Operational Commercial Communications
Bus & Motor
ARROW, Unknown motor
Mass
148 kg wet, ~140 kg dry
Launch date (UTC)
2021-08-21 (5 years ago)
Launch vehicle
SOYUZ-2-1B
Launch site
Tyuratam Missile And Space Complex (TTMTR)
Object type
Payload
Rocket body
Debris
Shape & HBR
Trap Box + 2 Pan, 6.7 m
Radar Cross Section
3.464 m², Large (>1 m²)

Expand to show TLE details & history
Last TLE update: 23 hours ago

TLE from 23 hours ago
0 ONEWEB-0297
1 49086U 21075M   26175.20198494 -.00000448  00000-0 -12801-2 0  9992
2 49086  87.8939 349.2811 0001941  90.4460 269.6891 13.12441038236109
Epoch: 2026-06-24T04:50Z
TLE epoch observation values (Epoch: 2026-06-24T04:50:51.498Z)
Latitude
-0.00003°
Longitude
4.20394°
Altitude
1,216.63 km
Speed
7.246 km/s
True Right ascension
23h 17m 07s
True Declination
0° 00' 00"
Sunlit
Object was in daylight at epoch
Visualization orbit readout
Latitude
Unknown
Longitude
Unknown
Altitude
Unknown
Speed
Unknown
Apparent Right ascension
Unknown
Apparent Declination
Unknown
Sunlit
N/A
Visualization observer readout
Local Sidereal Time
15:28:26
Azimuth
Unknown
Elevation
Unknown
Doppler factor
Unknown
Orbital elements
Apogee altitude
1,212.321 km
Perigee altitude
1,209.374 km
Semi-major axis
7,588.985 km
Eccentricity
0.00019
Inclination
87.8939°
RAAN
349.2811°
Arg. of periapsis
90.446°
True anomaly
269.66686°
Mean anomaly
269.6891°
Eccentric anomaly
269.67798°
Mean motion
3.28298 °/min
Orbital period
109.66 mins
BSTAR
-0.0012801
Loading maneuver chart data...
Computing Atmospheric mass density...
Loading historical data...
Loading historical data...
Loading historical data...
Loading historical data...
Loading historical data...
Loading historical data...
Loading historical data...

Documentation

Showing up to 5 results
|